Time,TemperatureF,DewpointF,PressureIn,WindDirection,WindDirectionDegrees,WindSpeedMPH,WindSpeedGustMPH,Humidity,HourlyPrecipIn,Conditions,Clouds,dailyrainin,SoftwareType,DateUTC
2013-03-17 00:00:00,17.7,15.0,29.99,WSW,248,0.0,-999.0,87,-99.99,,,0.00,weatherlink.com 1.10,2013-03-17 04:00:00,
2013-03-17 00:15:00,17.5,14.0,30.00,WSW,248,0.0,-999.0,87,-99.99,,,0.00,weatherlink.com 1.10,2013-03-17 04:15:00,
2013-03-17 00:30:00,17.5,15.0,30.00,WSW,248,2.0,-999.0,88,-99.99,,,0.00,weatherlink.com 1.10,2013-03-17 04:30:00,
2013-03-17 00:45:00,17.6,15.0,30.00,West,271,0.0,-999.0,88,-99.99,,,0.00,weatherlink.com 1.10,2013-03-17 04:45:00,
2013-03-17 01:00:00,17.9,15.0,30.00,WSW,248,2.0,-999.0,89,-99.99,,,0.00,weatherlink.com 1.10,2013-03-17 05:00:00,
2013-03-17 01:15:00,18.2,16.0,30.00,WSW,254,0.0,-999.0,89,-99.99,,,0.00,weatherlink.com 1.10,2013-03-17 05:15:00,
2013-03-17 01:30:00,18.4,16.0,30.02,WSW,237,0.0,-999.0,89,-99.99,,,0.00,weatherlink.com 1.10,2013-03-17 05:30:00,
2013-03-17 01:45:00,18.6,16.0,30.03,SW,228,1.0,-999.0,88,-99.99,,,0.00,weatherlink.com 1.10,2013-03-17 05:45:00,
2013-03-17 02:00:00,19.0,16.0,30.04,West,260,1.0,-999.0,88,-99.99,,,0.00,weatherlink.com 1.10,2013-03-17 06:00:00,
2013-03-17 02:15:00,19.3,16.0,30.03,SW,226,1.0,-999.0,88,-99.99,,,0.00,weatherlink.com 1.10,2013-03-17 06:15:00,
2013-03-17 02:30:00,19.4,16.0,30.03,West,261,0.0,-999.0,87,-99.99,,,0.00,weatherlink.com 1.10,2013-03-17 06:30:00,
2013-03-17 02:45:00,19.1,16.0,30.03,West,260,0.0,-999.0,87,-99.99,,,0.00,weatherlink.com 1.10,2013-03-17 06:45:00,
2013-03-17 03:00:00,18.8,16.0,30.03,West,261,1.0,-999.0,87,-99.99,,,0.00,weatherlink.com 1.10,2013-03-17 07:00:00,
2013-03-17 03:15:00,18.8,16.0,30.03,West,261,0.0,-999.0,87,-99.99,,,0.00,weatherlink.com 1.10,2013-03-17 07:15:00,
2013-03-17 03:30:00,19.1,16.0,30.04,WSW,246,2.0,-999.0,87,-99.99,,,0.00,weatherlink.com 1.10,2013-03-17 07:30:00,
2013-03-17 03:45:00,19.5,16.0,30.04,WSW,256,0.0,-999.0,87,-99.99,,,0.00,weatherlink.com 1.10,2013-03-17 07:45:00,
2013-03-17 04:00:00,19.7,16.0,30.04,WSW,256,0.0,-999.0,86,-99.99,,,0.00,weatherlink.com 1.10,2013-03-17 08:00:00,
2013-03-17 04:15:00,19.9,17.0,30.04,WSW,250,2.0,-999.0,87,-99.99,,,0.00,weatherlink.com 1.10,2013-03-17 08:15:00,
2013-03-17 04:30:00,20.4,17.0,30.05,West,265,0.0,-999.0,87,-99.99,,,0.00,weatherlink.com 1.10,2013-03-17 08:30:00,
2013-03-17 04:45:00,20.8,18.0,30.05,WSW,244,0.0,-999.0,87,-99.99,,,0.00,weatherlink.com 1.10,2013-03-17 08:45:00,
2013-03-17 05:00:00,20.9,18.0,30.06,WSW,257,0.0,-999.0,88,-99.99,,,0.00,weatherlink.com 1.10,2013-03-17 09:00:00,
2013-03-17 05:15:00,20.8,18.0,30.07,WSW,250,1.0,-999.0,88,-99.99,,,0.00,weatherlink.com 1.10,2013-03-17 09:15:00,
2013-03-17 05:30:00,20.8,18.0,30.08,WSW,250,0.0,-999.0,89,-99.99,,,0.00,weatherlink.com 1.10,2013-03-17 09:30:00,
2013-03-17 05:45:00,20.8,18.0,30.08,WSW,250,0.0,-999.0,89,-99.99,,,0.00,weatherlink.com 1.10,2013-03-17 09:45:00,
2013-03-17 06:00:00,20.8,18.0,30.08,WSW,250,0.0,-999.0,89,-99.99,,,0.00,weatherlink.com 1.10,2013-03-17 10:00:00,
2013-03-17 06:15:00,20.8,18.0,30.09,WSW,250,0.0,-999.0,90,-99.99,,,0.00,weatherlink.com 1.10,2013-03-17 10:15:00,
2013-03-17 06:30:00,20.7,18.0,30.09,WSW,250,0.0,-999.0,90,-99.99,,,0.00,weatherlink.com 1.10,2013-03-17 10:30:00,
2013-03-17 06:45:00,20.7,18.0,30.10,WSW,250,0.0,-999.0,90,-99.99,,,0.00,weatherlink.com 1.10,2013-03-17 10:45:00,
2013-03-17 07:00:00,20.4,18.0,30.11,WSW,250,0.0,-999.0,90,-99.99,,,0.00,weatherlink.com 1.10,2013-03-17 11:00:00,
2013-03-17 07:15:00,19.7,17.0,30.11,WSW,250,0.0,-999.0,90,-99.99,,,0.00,weatherlink.com 1.10,2013-03-17 11:15:00,
2013-03-17 07:30:00,19.0,17.0,30.12,WSW,250,0.0,-999.0,90,-99.99,,,0.00,weatherlink.com 1.10,2013-03-17 11:30:00,
2013-03-17 07:45:00,18.5,16.0,30.13,WSW,250,0.0,-999.0,89,-99.99,,,0.00,weatherlink.com 1.10,2013-03-17 11:45:00,
2013-03-17 08:00:00,18.5,16.0,30.13,WSW,250,0.0,-999.0,90,-99.99,,,0.00,weatherlink.com 1.10,2013-03-17 12:00:00,
2013-03-17 08:15:00,19.0,17.0,30.14,WSW,250,0.0,-999.0,90,-99.99,,,0.00,weatherlink.com 1.10,2013-03-17 12:15:00,
2013-03-17 08:30:00,19.8,18.0,30.15,WSW,250,0.0,-999.0,91,-99.99,,,0.00,weatherlink.com 1.10,2013-03-17 12:30:00,
2013-03-17 08:45:00,21.0,19.0,30.16,WSW,250,0.0,-999.0,91,-99.99,,,0.00,weatherlink.com 1.10,2013-03-17 12:45:00,
2013-03-17 09:00:00,22.5,20.0,30.17,WSW,250,1.0,-999.0,91,-99.99,,,0.00,weatherlink.com 1.10,2013-03-17 13:00:00,
2013-03-17 09:15:00,23.5,21.0,30.18,SW,214,1.0,-999.0,90,-99.99,,,0.00,weatherlink.com 1.10,2013-03-17 13:15:00,
2013-03-17 09:31:00,24.7,22.0,30.18,WSW,238,0.0,-999.0,89,-99.99,,,0.00,weatherlink.com 1.10,2013-03-17 13:31:00,
2013-03-17 09:45:00,26.1,23.0,30.19,WNW,292,1.0,-999.0,87,-99.99,,,0.00,weatherlink.com 1.10,2013-03-17 13:45:00,
2013-03-17 10:00:00,26.9,23.0,30.19,WSW,257,2.0,-999.0,84,-99.99,,,0.00,weatherlink.com 1.10,2013-03-17 14:00:00,
2013-03-17 10:15:00,27.0,22.0,30.19,SW,232,2.0,-999.0,82,-99.99,,,0.00,weatherlink.com 1.10,2013-03-17 14:15:00,
2013-03-17 10:34:00,27.7,22.0,30.19,NW,309,2.0,-999.0,80,-99.99,,,0.00,weatherlink.com 1.10,2013-03-17 14:34:00,
2013-03-17 10:45:00,27.7,22.0,30.20,WNW,301,2.0,-999.0,80,-99.99,,,0.00,weatherlink.com 1.10,2013-03-17 14:45:00,
2013-03-17 11:00:00,27.0,23.0,30.20,NNW,343,3.0,-999.0,83,-99.99,,,0.00,weatherlink.com 1.10,2013-03-17 15:00:00,
2013-03-17 11:15:00,26.1,22.0,30.21,NW,326,0.0,-999.0,85,-99.99,,,0.00,weatherlink.com 1.10,2013-03-17 15:15:00,
2013-03-17 11:30:00,27.0,24.0,30.22,SW,226,4.0,-999.0,87,-99.99,,,0.00,weatherlink.com 1.10,2013-03-17 15:30:00,
2013-03-17 11:45:00,28.0,24.0,30.22,NNW,329,1.0,-999.0,85,-99.99,,,0.00,weatherlink.com 1.10,2013-03-17 15:45:00,
2013-03-17 12:00:00,28.5,24.0,30.23,NNW,327,0.0,-999.0,83,-99.99,,,0.01,weatherlink.com 1.10,2013-03-17 16:00:00,
2013-03-17 12:15:00,28.3,24.0,30.23,NNW,346,1.0,-999.0,85,-99.99,,,0.01,weatherlink.com 1.10,2013-03-17 16:15:00,
2013-03-17 12:30:00,28.8,25.0,30.24,NNW,338,1.0,-999.0,84,-99.99,,,0.01,weatherlink.com 1.10,2013-03-17 16:30:00,
2013-03-17 12:45:00,29.2,25.0,30.24,NW,314,0.0,-999.0,83,-99.99,,,0.01,weatherlink.com 1.10,2013-03-17 16:45:00,
2013-03-17 13:00:00,30.3,25.0,30.24,WNW,301,4.0,-999.0,82,-99.99,,,0.01,weatherlink.com 1.10,2013-03-17 17:00:00,
2013-03-17 13:15:00,29.5,24.0,30.24,NE,44,4.0,-999.0,81,-99.99,,,0.01,weatherlink.com 1.10,2013-03-17 17:15:00,
2013-03-17 13:30:00,28.6,23.0,30.25,NNW,328,0.0,-999.0,78,-99.99,,,0.01,weatherlink.com 1.10,2013-03-17 17:30:00,
2013-03-17 13:45:00,28.9,24.0,30.25,NW,311,3.0,-999.0,81,-99.99,,,0.01,weatherlink.com 1.10,2013-03-17 17:45:00,
2013-03-17 14:00:00,27.7,23.0,30.25,NW,318,1.0,-999.0,82,-99.99,,,0.01,weatherlink.com 1.10,2013-03-17 18:00:00,
2013-03-17 14:15:00,29.8,23.0,30.25,NW,323,4.0,-999.0,77,-99.99,,,0.01,weatherlink.com 1.10,2013-03-17 18:15:00,
2013-03-17 14:30:00,29.7,24.0,30.25,NW,311,2.0,-999.0,79,-99.99,,,0.01,weatherlink.com 1.10,2013-03-17 18:30:00,
2013-03-17 14:45:00,29.5,23.0,30.25,NW,311,4.0,-999.0,75,-99.99,,,0.01,weatherlink.com 1.10,2013-03-17 18:45:00,
2013-03-17 15:00:00,29.6,22.0,30.25,SW,221,0.0,-999.0,72,-99.99,,,0.01,weatherlink.com 1.10,2013-03-17 19:00:00,
2013-03-17 15:15:00,31.3,21.0,30.25,NNW,337,11.0,-999.0,67,-99.99,,,0.01,weatherlink.com 1.10,2013-03-17 19:15:00,
2013-03-17 15:30:00,30.3,19.0,30.25,North,355,2.0,-999.0,64,-99.99,,,0.01,weatherlink.com 1.10,2013-03-17 19:30:00,
2013-03-17 15:45:00,30.5,19.0,30.25,North,350,3.0,-999.0,63,-99.99,,,0.01,weatherlink.com 1.10,2013-03-17 19:45:00,
2013-03-17 16:00:00,30.2,18.0,30.25,NNE,24,4.0,-999.0,62,-99.99,,,0.01,weatherlink.com 1.10,2013-03-17 20:00:00,
2013-03-17 16:15:00,30.0,18.0,30.26,NW,318,3.0,-999.0,62,-99.99,,,0.01,weatherlink.com 1.10,2013-03-17 20:15:00,
2013-03-17 16:30:00,30.1,18.0,30.26,NW,307,2.0,-999.0,61,-99.99,,,0.01,weatherlink.com 1.10,2013-03-17 20:30:00,
2013-03-17 16:45:00,30.1,18.0,30.27,NNW,327,4.0,-999.0,61,-99.99,,,0.01,weatherlink.com 1.10,2013-03-17 20:45:00,
2013-03-17 17:00:00,29.5,17.0,30.27,NW,307,5.0,-999.0,60,-99.99,,,0.01,weatherlink.com 1.10,2013-03-17 21:00:00,
2013-03-17 17:15:00,29.1,16.0,30.27,North,5,4.0,-999.0,58,-99.99,,,0.01,weatherlink.com 1.10,2013-03-17 21:15:00,
2013-03-17 17:30:00,28.5,14.0,30.27,NNE,15,1.0,-999.0,56,-99.99,,,0.01,weatherlink.com 1.10,2013-03-17 21:30:00,
2013-03-17 17:45:00,28.3,14.0,30.28,NE,44,2.0,-999.0,56,-99.99,,,0.01,weatherlink.com 1.10,2013-03-17 21:45:00,
2013-03-17 18:00:00,28.0,14.0,30.28,NNW,341,0.0,-999.0,55,-99.99,,,0.01,weatherlink.com 1.10,2013-03-17 22:00:00,
2013-03-17 18:15:00,27.6,13.0,30.29,NNE,14,3.0,-999.0,55,-99.99,,,0.01,weatherlink.com 1.10,2013-03-17 22:15:00,
2013-03-17 18:30:00,26.8,14.0,30.30,NNW,329,3.0,-999.0,58,-99.99,,,0.01,weatherlink.com 1.10,2013-03-17 22:30:00,
2013-03-17 18:45:00,26.2,14.0,30.30,NW,322,0.0,-999.0,59,-99.99,,,0.01,weatherlink.com 1.10,2013-03-17 22:45:00,
2013-03-17 19:00:00,25.7,13.0,30.30,NW,323,2.0,-999.0,59,-99.99,,,0.01,weatherlink.com 1.10,2013-03-17 23:00:00,
2013-03-17 19:15:00,25.2,13.0,30.30,NNW,345,0.0,-999.0,60,-99.99,,,0.01,weatherlink.com 1.10,2013-03-17 23:15:00,
2013-03-17 19:30:00,24.5,12.0,30.30,NNE,28,2.0,-999.0,60,-99.99,,,0.01,weatherlink.com 1.10,2013-03-17 23:30:00,
2013-03-17 19:45:00,24.0,12.0,30.31,NNW,328,0.0,-999.0,61,-99.99,,,0.01,weatherlink.com 1.10,2013-03-17 23:45:00,
2013-03-17 20:00:00,23.6,13.0,30.32,North,9,1.0,-999.0,63,-99.99,,,0.01,weatherlink.com 1.10,2013-03-18 00:00:00,
2013-03-17 20:15:00,23.2,12.0,30.32,NNW,340,0.0,-999.0,63,-99.99,,,0.01,weatherlink.com 1.10,2013-03-18 00:15:00,
2013-03-17 20:30:00,22.8,12.0,30.32,North,360,0.0,-999.0,64,-99.99,,,0.01,weatherlink.com 1.10,2013-03-18 00:30:00,
2013-03-17 20:45:00,22.5,12.0,30.33,North,349,1.0,-999.0,64,-99.99,,,0.01,weatherlink.com 1.10,2013-03-18 00:45:00,
2013-03-17 21:00:00,22.1,12.0,30.33,North,349,2.0,-999.0,64,-99.99,,,0.01,weatherlink.com 1.10,2013-03-18 01:00:00,
2013-03-17 21:15:00,21.7,11.0,30.32,North,350,0.0,-999.0,64,-99.99,,,0.01,weatherlink.com 1.10,2013-03-18 01:15:00,
2013-03-17 21:30:00,21.3,11.0,30.33,North,350,0.0,-999.0,65,-99.99,,,0.01,weatherlink.com 1.10,2013-03-18 01:30:00,
2013-03-17 21:45:00,20.7,12.0,30.34,North,349,0.0,-999.0,68,-99.99,,,0.01,weatherlink.com 1.10,2013-03-18 01:45:00,
2013-03-17 22:00:00,20.2,11.0,30.35,North,349,0.0,-999.0,68,-99.99,,,0.01,weatherlink.com 1.10,2013-03-18 02:00:00,
2013-03-17 22:15:00,19.4,11.0,30.35,North,350,0.0,-999.0,69,-99.99,,,0.01,weatherlink.com 1.10,2013-03-18 02:15:00,
2013-03-17 22:30:00,18.9,10.0,30.35,North,350,0.0,-999.0,69,-99.99,,,0.01,weatherlink.com 1.10,2013-03-18 02:30:00,
2013-03-17 22:45:00,18.5,10.0,30.35,North,350,0.0,-999.0,70,-99.99,,,0.01,weatherlink.com 1.10,2013-03-18 02:45:00,
2013-03-17 23:00:00,18.1,10.0,30.35,North,349,0.0,-999.0,70,-99.99,,,0.01,weatherlink.com 1.10,2013-03-18 03:00:00,
2013-03-17 23:15:00,17.9,10.0,30.35,North,350,0.0,-999.0,72,-99.99,,,0.01,weatherlink.com 1.10,2013-03-18 03:15:00,
2013-03-17 23:30:00,17.6,10.0,30.36,North,350,0.0,-999.0,73,-99.99,,,0.01,weatherlink.com 1.10,2013-03-18 03:30:00,
2013-03-17 23:45:00,17.2,10.0,30.35,North,350,0.0,-999.0,74,-99.99,,,0.01,weatherlink.com 1.10,2013-03-18 03:45:00,